Hourly Data Report for February 27, 2022

TORONTO INTL A
ONTARIO
Current Station Operator: NAVCAN

43°40'36.000" N
79°37'50.000" W
173.40 m
6158731
71624
YYZ

Download Data

Hourly Data (February 2022)
Hourly Data Report for February 27, 2022
TIME
LST
Temp Definition
°C
Dew Point Definition
°C
Rel Hum Definition
%
Precip. Amount Definition
mm

Wind Dir Definition
10's deg

Wind Spd Definition
km/h
Visibility Definition
km
Stn Press Definition
kPa
Hmdx Definition


Wind Chill Definition


Weather Definition


00:00 -4.6 -9.7 67   24 31 24.1 99.74   -13 LegendNANA
01:00 -4.5 -9.9 66   25 32 24.1 99.70   -13 Clear
02:00 -4.7 -9.9 67   23 27 24.1 99.64   -12 LegendNANA
03:00 -4.8 -9.5 69   23 28 24.1 99.54   -12 LegendNANA
04:00 -4.8 -9.3 71   23 25 24.1 99.48   -12 Mainly Clear
05:00 -4.2 -8.6 71   24 24 24.1 99.43   -11 LegendNANA
06:00 -3.5 -7.9 72   23 24 24.1 99.40   -10 LegendNANA
07:00 -3.3 -7.5 73   24 21 24.1 99.33   -10 Cloudy
08:00 -2.3 -6.5 73   26 33 24.1 99.29   -10 LegendNANA
09:00 -2.1 -6.2 74   25 27 24.1 99.30   -9 LegendNANA
10:00 -1.4 -5.0 76   26 27 8.1 99.28   -8 Snow
11:00 0.4 -4.9 68   27 28 24.1 99.23     LegendNANA
12:00 -0.7 -6.0 67   30 37 24.1 99.32   -8 LegendNANA
13:00 -0.6 -6.9 62   31 39 24.1 99.32   -8 Mostly Cloudy
14:00 -1.0 -7.4 62   30 29 24.1 99.37   -8 LegendNANA
15:00 -0.9 -8.1 59   30 41 24.1 99.40   -9 LegendNANA
16:00 -1.8 -6.7 69   29 34 16.1 99.48   -9 Snow Showers
17:00 -3.2 -6.1 80   29 41 2.4 99.56   -12 Snow Showers,Blowing Snow
18:00 -2.9 -8.1 68   30 33 24.1 99.65   -11 LegendNANA
19:00 -3.9 -8.1 73   32 25 24.1 99.77   -11 Mostly Cloudy
20:00 -4.0 -8.2 73   31 28 24.1 99.84   -11 LegendNANA
21:00 -5.2 -12.4 57   32 35 24.1 99.93   -14 LegendNANA
22:00 -6.1 -13.4 57   32 23 24.1 100.00   -13 Mainly Clear
23:00 -7.1 -13.4 61   32 17 24.1 100.06   -14 LegendNANA

Notes on Data Quality.

Legend

  • E = Estimated
  • M = Missing
  • NA = Not Available*
  • [empty] = Indicates an unobserved value
Date modified: